Location: Aragnouet
(42.7874°N, 0.2165°E)
Time: 03:03:28
(UTC+00:00)

STPSAT 2 (USA 217) - Pass Details

Date: 09 April 2020
Orbit: 622 x 646 km, 72.0° (Epoch: 16 May)

Event Time Altitude Azimuth Distance (km) Brightness Sun altitude
Rises 20:24:31 0° 202° (SSW) 2,887 7.9 -19.4°
Reaches altitude 10° 20:26:45 10° 202° (SSW) 1,985 7.0 -19.8°
Maximum altitude 20:31:13 88° 290° (WNW) 629 4.5 -20.5°
Drops below altitude 10° 20:35:43 10° 23° (NNE) 2,005 7.3 -21.2°
Sets 20:38:00 0° 23° (NNE) 2,919 8.2 -21.5°
